Regional Weather Roundup
Issued by NWS

Home | Current Version | Previous Version | Text Only | Print | Product List | Glossary On
Versions: 1 2 3 4 5 6 7 8 9 10 11 12 13 14 15 16 17 18 19 20 21 22 23 24 25 26 27 28 29 30 31 32 33 34 35 36 37 38 39 40 41 42 43 44 45 46 47 48 49 50
000
ASUS45 KBOI 191610
RWRID

IDAHO REGIONAL WEATHER ROUNDUP
NATIONAL WEATHER SERVICE BOISE ID
900 AM MST MON FEB 19 2018

NOTE: "FAIR" INDICATES FEW OR NO CLOUDS BELOW 12000 FEET
WITH NO SIGNIFICANT WEATHER AND/OR OBSTRUCTIONS TO VISIBILITY

IDZ012-014-191700-
SOUTHWEST IDAHO


CITY           SKY/WX    TMP DP  RH WIND       PRES   REMARKS
BOISE          CLOUDY    25  20  81 NW10      29.75R WCI  15
CALDWELL       CLOUDY    25  17  72 W17       29.80R WCI  12
MOUNTAIN HOME  MOSUNNY   24  24 100 W12       29.72S WCI  13
$$

IDZ016-017-191700-
SOUTHCENTRAL IDAHO


CITY           SKY/WX    TMP DP  RH WIND       PRES   REMARKS
BURLEY         CLOUDY    19  14  81 SW9       29.62S WCI   8
JEROME         MOSUNNY   22  18  85 W15       29.64R WCI   9
TWIN FALLS     MOSUNNY   19  16  88 W16       29.63R WCI   4
$$

IDZ019>023-191700-
SOUTHEAST IDAHO


CITY           SKY/WX    TMP DP  RH WIND       PRES   REMARKS
IDAHO FALLS    FLURRIES  14   3  61 N13       29.60R WCI   0
POCATELLO      PTSUNNY   19   7  59 N9        29.61R WCI   8
REXBURG        CLOUDY    13   4  67 NE8       29.58S WCI   2
$$

IDZ006-010-011-018-031-032-191700-
CENTRAL IDAHO MOUNTAINS


CITY           SKY/WX    TMP DP  RH WIND       PRES   REMARKS
MCCALL         CLOUDY     9   6  88 CALM      29.62R
HAILEY         MOSUNNY   12   1  62 W14       29.57R WCI  -3
STANLEY          N/A     -4 -10  75 E5        29.57R WCI -15
SALMON         CLOUDY    10   0  63 N8        29.81R WCI  -2
CHALLIS        CLOUDY    14   4  64 N10       29.64R WCI   1
$$

IDZ002-004-006-007-026-191700-
NORTHERN IDAHO


CITY           SKY/WX    TMP DP  RH WIND       PRES   REMARKS
LEWISTON       CLOUDY    20  11  68 NW13G18   30.01R WCI   7
LOWELL           N/A     19   7  59 VRB5      30.00R WCI  12
COEUR D`ALENE  CLOUDY    10  -1  61 N16       30.00R WCI  -7
MULLAN PASS    CLOUDY    -5  -9  83 VRB5      29.64R WCI -16
$$



USA.gov is the U.S. government's official web portal to all federal, state and local government web resources and services.